Showing default

IRIDIUM 121, 42812

Orbit data source: Space-Track

IRIDIUM 121, 42812 is a payload satellite owned by Iridium (US) in LEO that was launched on Sun, 25 Jun 2017 UTC via an FALCON 9 launch vehicle from the Air Force Western Test Range (AFWTR). Payloads include a variety of satellites, spacecraft, and rockets equipped with specific instruments for various scientific and technological missions. These include communications satellites like Starlink; space stations such as the ISS; scientific satellites like the Hubble; Earth observation satellites from companies like Planet Labs, Umbra, and HawkEye 360; GPS; miniature CubeSats for education and research; and military/defense satellites.

Loading next visibility...
IRIDIUM 121 details
Identifier
42812, 2017-039K
Orbit
LEO
Last TLE update17 hours ago
Origin
Flag of USIridium (US)
ManufacturerOATK SSG Gilbert
MissionOperational Commercial Communications
Bus & MotorELITEBUS, Unknown motor
Mass860 kg wet, 700 kg dry
Launch date (UTC)
2017-06-25 (7 years ago)
Launch vehicle
FALCON 9
Launch site
Air Force Western Test Range (AFWTR)
Object type
Payload
Rocket body
Debris
Shape & HBRTrap Box + 2 Pan, 9.4 m
Radar Cross Section14.423 m², Large (>1 m²)

Expand to show TLE details & history

TLE from 17 hours ago
0 IRIDIUM 121
1 42812U 17039K   24347.64753369  .00000001  00000-0 -66878-5 0  9992
2 42812  86.3992 224.1100 0001797  85.7852 274.3549 14.34216622390776
Epoch: 2024-12-12T15:32Z
Definitive object data (Epoch: 2024-12-12T15:32:26.91Z)
Latitude-0.00006°
Longitude-90.82699°
Altitude780.624 km
Speed7.464 km/s
True Right ascension14h 56m 26s
True Declination0° 00' 00"
Sunlit
Object was in daylight at TLE epoch
Visualization TLE readout
Latitude-45.04963°
Longitude-94.70972°
Altitude795.943 km
Speed7.454 km/s
Apparent Right ascension16h 35m 13s
Apparent Declination-46° 19' 40"
Sunlit
Object is in daylight
Visualization observer readout
Local Sidereal Time06:34:05
Azimuth116.403° SE
Elevation-67.532°
Doppler factor1
Orbital elements
Apogee altitude775.921 km
Perigee altitude773.35 km
Semi-major axis7,152.772 km
Eccentricity0.0001797
Inclination86.3992°
RAAN224.11°
Arg. of periapsis85.7852°
True anomaly274.33437°
Mean anomaly274.3549°
Eccentric anomaly274.34463°
Mean motion3.58783 °/min
BSTAR-0.0000066878
Orbital period100.34 mins
Loading maneuver chart data...
Loading historical data...
Loading historical data...
Loading historical data...
Loading historical data...
Loading historical data...
Loading historical data...
Loading historical data...

IRIDIUM 121 Visibility forecast

Observer location: undefined°, undefined

Span
Click to sort rows by Start time (UTC) header in descending order
Start Az.
Max El. time (UTC)
Max El. Az.
Max El.
End time (UTC)
End Az.
4 mins2024-12-13 15:08:33.038Z101.477° ESE2024-12-13 15:10:33.038Z77.536° E13.204°2024-12-13 15:12:33.038Z53.64° ENE
9 mins2024-12-13 16:46:33.038Z194.263° SSW2024-12-13 16:50:33.038Z269.03° W42.219°2024-12-13 16:55:33.038Z356.011° N
8 mins2024-12-14 03:17:33.038Z25.961° NE2024-12-14 03:20:33.038Z70.023° E27°2024-12-14 03:25:33.038Z142.344° SSE
7 mins2024-12-14 04:58:33.038Z324.282° NNW2024-12-14 05:01:33.038Z278.1° WNW25.068°2024-12-14 05:05:33.038Z222.305° SW
|